CQ0XBF-11 Chamusca PT current weather conditions

sailwx.info

Wind from 234 at 4 knots gusting 7

Air temperature 21.7° C
Dewpoint 10.5° C

Last reported at 2017-Oct-17 11:08 UTC.
Time now 2017-Oct-17 11:34 UTC

Location: N 39°21' W 008°28'.
View on Google Maps.

See reports from other nearby stations

  
Tides and Currents Weather Stations Pressure Air Temp Water Temp Dewpoint Dewpoint Depression Visibility Wind Speed Wind Dir Waves Ship Positions
date/time (UTC)wind fromknots sea level pressurealtimeterstation pressurevisibilityair tempwater tempwave heightnotes
2017-Oct-17 11:08 234 4 gusting 7 21.7
2017-Oct-17 11:04 205 4 gusting 6 21.1
2017-Oct-17 10:58 270 1 gusting 6 21.1
2017-Oct-17 10:54 253 3 gusting 7 21.1
2017-Oct-17 10:50 185 1 gusting 7 20.6
2017-Oct-17 10:44 212 2 gusting 6 20.6
2017-Oct-17 10:40 215 5 gusting 6 20.0
2017-Oct-17 10:33 237 1 gusting 5 20.0
2017-Oct-17 10:29 247 0 gusting 5 19.4
2017-Oct-17 10:23 232 4 gusting 6 19.4
2017-Oct-17 10:19 199 6 gusting 6 19.4
2017-Oct-17 10:13 233 4 gusting 5 19.4
2017-Oct-17 10:09 255 2 gusting 4 19.4
2017-Oct-17 10:03 250 1 gusting 3 19.4
2017-Oct-17 09:59 234 0 gusting 3 19.4
2017-Oct-17 09:53 201 2 gusting 3 19.4
2017-Oct-17 09:49 205 1 gusting 5 19.4
2017-Oct-17 09:43 215 3 gusting 3 18.9
2017-Oct-17 09:39 178 1 gusting 4 18.9
2017-Oct-17 09:35 198 2 gusting 4 18.9
2017-Oct-17 09:29 178 1 gusting 4 18.9
2017-Oct-17 09:25 182 2 gusting 4 18.9
2017-Oct-17 09:18 175 18.3
2017-Oct-17 09:14 180 4 gusting 6 18.9
2017-Oct-17 09:08 227 2 gusting 5 18.3
2017-Oct-17 09:04 239 1 gusting 5 17.8
2017-Oct-17 08:58 234 1 gusting 4 17.8
2017-Oct-17 08:54 255 1 gusting 4 17.8
2017-Oct-17 08:48 229 0 gusting 3 17.8
2017-Oct-17 08:44 194 1 gusting 3 17.8
2017-Oct-17 08:38 194 1 gusting 3 17.8
2017-Oct-17 08:34 198 2 gusting 3 17.8
2017-Oct-17 08:28 180 2 gusting 3 17.2
2017-Oct-17 08:24 253 1 gusting 2 17.2
2017-Oct-17 08:20 213 1 gusting 2 17.2
2017-Oct-17 08:14 185 16.7
2017-Oct-17 08:10 206 1 gusting 4 16.7
2017-Oct-17 08:04 188 2 gusting 3 16.1
2017-Oct-17 07:59 181 0 gusting 3 15.6
2017-Oct-17 07:53 188 1 gusting 3 15.0
2017-Oct-17 07:49 171 1 gusting 3 15.0
2017-Oct-17 07:43 185 3 gusting 5 15.0
2017-Oct-17 07:39 156 0 gusting 5 15.0
2017-Oct-17 07:33 246 1 gusting 3 15.0
2017-Oct-17 07:29 201 0 gusting 2 15.0
2017-Oct-17 07:23 215 0 gusting 2 15.0
2017-Oct-17 07:19 216 2 gusting 2 15.0
2017-Oct-17 07:13 191 0 gusting 2 15.0
2017-Oct-17 07:09 172 1 gusting 3 15.0
2017-Oct-17 07:03 139 1 gusting 3 15.0
2017-Oct-17 06:59 156 1 gusting 2 15.0
2017-Oct-17 06:55 182 1 gusting 2 15.0
2017-Oct-17 06:49 160 1 gusting 1 15.0
2017-Oct-17 06:44 161 1 gusting 1 15.0
2017-Oct-17 06:38 222 1 gusting 1 15.6
2017-Oct-17 06:34 201 1 gusting 1 15.6
2017-Oct-17 06:28 163 0 gusting 3 15.6
2017-Oct-17 06:24 184 15.6
2017-Oct-17 06:18 229 15.6
2017-Oct-17 06:14 255 1 gusting 1 15.6
2017-Oct-17 06:08 326 15.6
2017-Oct-17 06:04 341 15.6
2017-Oct-17 05:58 331 15.6
2017-Oct-17 05:54 316 15.6
2017-Oct-17 05:48 007 0 gusting 1 15.6
2017-Oct-17 05:44 018 15.6
2017-Oct-17 05:40 002 0 gusting 1 15.6
2017-Oct-17 05:34 330 16.1
2017-Oct-17 05:29 099 16.1
2017-Oct-17 05:23 340 16.1
2017-Oct-17 05:19 350 15.6
2017-Oct-17 05:13 329 16.1
2017-Oct-17 05:09 310 16.1
2017-Oct-17 05:03 315 0 gusting 1 16.1
2017-Oct-17 04:59 268 16.1
2017-Oct-17 04:53 350 0 gusting 1 16.1
2017-Oct-17 04:49 305 16.7
2017-Oct-17 04:43 099 16.7
2017-Oct-17 04:39 202 16.7
2017-Oct-17 04:33 239 16.7
2017-Oct-17 04:29 237 16.7
2017-Oct-17 04:25 255 16.7
2017-Oct-17 04:19 340 1 gusting 2 16.7
2017-Oct-17 04:15 277 0 gusting 2 16.7
2017-Oct-17 04:08 248 16.7
2017-Oct-17 04:04 334 1 gusting 2 16.7
2017-Oct-17 03:58 305 1 gusting 3 16.7
2017-Oct-17 03:54 316 16.7
2017-Oct-17 03:48 258 17.2
2017-Oct-17 03:44 084 16.7
2017-Oct-17 03:38 319 16.7
2017-Oct-17 03:34 144 0 gusting 0 17.2
2017-Oct-17 03:28 281 17.2
2017-Oct-17 03:24 275 0 gusting 2 17.2
2017-Oct-17 03:18 288 17.2
2017-Oct-17 03:14 279 17.2
2017-Oct-17 03:10 313 17.2
2017-Oct-17 03:04 278 0 gusting 2 17.8
2017-Oct-17 03:00 312 17.2
2017-Oct-17 02:53 234 17.2
2017-Oct-17 02:49 298 17.8
2017-Oct-17 02:43 212 17.8
2017-Oct-17 02:39 271 17.8
2017-Oct-17 02:33 354 18.3
2017-Oct-17 02:29 254 18.3
2017-Oct-17 02:23 059 18.3
2017-Oct-17 02:19 059 18.3
2017-Oct-17 02:13 060 18.3
2017-Oct-17 02:09 060 18.3
2017-Oct-17 02:03 060 18.3
2017-Oct-17 01:59 136 18.3
2017-Oct-17 01:55 136 18.3
2017-Oct-17 01:49 136 18.3
2017-Oct-17 01:45 208 18.3
2017-Oct-17 01:39 208 18.3
2017-Oct-17 01:34 208 18.3
2017-Oct-17 01:28 208 18.3
2017-Oct-17 01:24 248 0 gusting 0 18.3
2017-Oct-17 01:18 217 18.3
2017-Oct-17 01:14 213 18.3
2017-Oct-17 01:08 177 18.3
2017-Oct-17 01:04 222 18.3
2017-Oct-17 00:58 232 1 gusting 2 18.9
2017-Oct-17 00:54 247 1 18.3
2017-Oct-17 00:48 268 18.3
2017-Oct-17 00:44 268 18.3
2017-Oct-17 00:38 229 0 gusting 10 18.3
2017-Oct-17 00:34 326 0 gusting 6 18.3
2017-Oct-17 00:30 250 6 gusting 6 18.9
2017-Oct-17 00:24 244 1 gusting 1 18.9
2017-Oct-17 00:20 268 0 gusting 1 18.9
2017-Oct-17 00:13 257 19.4
2017-Oct-17 00:09 066 18.9
2017-Oct-17 00:03 033 19.4
2017-Oct-16 23:59 095 0 gusting 0 18.9
2017-Oct-16 23:53 085 0 gusting 1 19.4
2017-Oct-16 23:49 271 18.9
2017-Oct-16 23:43 350 1 gusting 1 18.9
2017-Oct-16 23:39 341 1 gusting 2 18.9
2017-Oct-16 23:33 307 0 gusting 2 19.4
2017-Oct-16 23:29 322 1 gusting 3 19.4
2017-Oct-16 23:23 317 2 gusting 2 19.4
2017-Oct-16 23:19 322 1 gusting 2 19.4
2017-Oct-16 23:15 267 19.4
2017-Oct-16 23:09 119 0 gusting 2 19.4
2017-Oct-16 23:05 115 0 gusting 2 19.4
2017-Oct-16 22:58 046 20.0
2017-Oct-16 22:54 324 19.4
2017-Oct-16 22:48 237 1 gusting 2 19.4
2017-Oct-16 22:44 357 0 gusting 2 19.4
2017-Oct-16 22:38 265 19.4
2017-Oct-16 22:34 326 0 gusting 6 18.9
2017-Oct-16 22:28 045 2 gusting 4 18.9
2017-Oct-16 22:24 336 4 gusting 4 18.9
2017-Oct-16 22:18 313 3 gusting 4 19.4
2017-Oct-16 22:14 345 1 gusting 3 20.0
2017-Oct-16 22:08 316 2 gusting 2 20.0
2017-Oct-16 22:04 323 1 gusting 1 20.0
2017-Oct-16 22:00 336 0 gusting 1 20.6
2017-Oct-16 21:54 035 20.6
2017-Oct-16 21:50 035 20.0
2017-Oct-16 21:44 074 1 gusting 4 20.0
2017-Oct-16 21:39 099 2 gusting 4 20.0
2017-Oct-16 21:33 074 3 gusting 2 20.0
2017-Oct-16 21:29 070 1 gusting 2 20.0
2017-Oct-16 21:23 036 20.0
2017-Oct-16 21:19 326 2 gusting 2 20.0
2017-Oct-16 21:13 326 1 gusting 2 20.0
2017-Oct-16 21:09 347 20.0
2017-Oct-16 21:03 271 20.0
2017-Oct-16 20:59 336 1 gusting 3 20.0
2017-Oct-16 20:53 295 1 gusting 5 20.0
2017-Oct-16 20:49 310 1 gusting 5 20.0
2017-Oct-16 20:45 315 2 gusting 5 20.6
2017-Oct-16 20:39 158 1 gusting 5 20.6
2017-Oct-16 20:34 281 0 gusting 5 20.6
2017-Oct-16 20:28 295 20.6
2017-Oct-16 20:24 303 1 gusting 4 20.6
2017-Oct-16 20:18 288 20.6
2017-Oct-16 20:14 330 3 gusting 5 20.6
2017-Oct-16 20:08 199 1 gusting 5 20.6
2017-Oct-16 20:04 315 4 gusting 6 20.0
2017-Oct-16 19:58 023 1 gusting 5 20.6
2017-Oct-16 19:54 300 0 gusting 5 20.6
2017-Oct-16 19:50 352 1 gusting 5 20.6
2017-Oct-16 19:44 334 0 gusting 5 20.6
2017-Oct-16 19:40 358 2 gusting 5 20.6
2017-Oct-16 19:34 303 1 gusting 5 21.1
2017-Oct-16 19:29 319 5 gusting 5 21.1
2017-Oct-16 19:23 310 1 gusting 4 21.7
2017-Oct-16 19:19 307 2 gusting 4 21.7
2017-Oct-16 19:13 329 3 gusting 5 22.2
2017-Oct-16 19:09 350 3 gusting 2 22.2
2017-Oct-16 19:03 305 22.2
2017-Oct-16 18:59 343 2 gusting 4 22.8
2017-Oct-16 18:53 358 1 gusting 4 23.3
2017-Oct-16 18:49 274 0 gusting 2 23.3
2017-Oct-16 18:43 298 23.3
2017-Oct-16 18:39 223 23.3
2017-Oct-16 18:33 334 1 gusting 1 23.9
2017-Oct-16 18:29 219 24.4
2017-Oct-16 18:25 261 24.4
2017-Oct-16 18:19 220 2 gusting 4 24.4
2017-Oct-16 18:14 247 2 gusting 4 25.0
2017-Oct-16 18:08 244 1 gusting 3 25.0
2017-Oct-16 18:04 246 0 gusting 3 25.0
2017-Oct-16 17:58 201 2 gusting 4 25.6
2017-Oct-16 17:54 271 0 gusting 4 25.6
2017-Oct-16 17:48 243 3 gusting 6 25.6
2017-Oct-16 17:44 194 2 gusting 6 25.6
2017-Oct-16 17:38 223 3 gusting 6 26.1
2017-Oct-16 17:34 239 0 gusting 4 26.1
2017-Oct-16 17:28 243 1 gusting 4 26.1
2017-Oct-16 17:24 313 0 gusting 2 26.1
2017-Oct-16 17:18 255 1 gusting 1 26.1
2017-Oct-16 17:14 230 26.1
2017-Oct-16 17:10 268 26.1
2017-Oct-16 17:04 288 0 gusting 4 26.1
2017-Oct-16 17:00 277 0 gusting 4 26.7
2017-Oct-16 16:53 284 0 gusting 6 26.7
2017-Oct-16 16:49 251 0 gusting 6 27.2
2017-Oct-16 16:43 219 6 gusting 7 27.8
2017-Oct-16 16:39 215 3 gusting 7 27.8
2017-Oct-16 16:33 174 2 gusting 7 27.8
2017-Oct-16 16:29 182 4 gusting 6 27.8
2017-Oct-16 16:23 201 2 gusting 5 28.3
2017-Oct-16 16:19 165 2 gusting 7 28.3
2017-Oct-16 16:09 172 3 gusting 11 28.3
2017-Oct-16 16:03 163 6 gusting 9 28.9
2017-Oct-16 15:59 168 6 gusting 11 29.4
2017-Oct-16 15:55 157 6 gusting 11 29.4
2017-Oct-16 15:49 174 6 gusting 8 29.4
2017-Oct-16 15:45 165 3 gusting 8 29.4
2017-Oct-16 15:39 118 3 gusting 7 28.9
2017-Oct-16 15:34 161 6 gusting 7 28.9
2017-Oct-16 15:28 146 7 gusting 10 28.9
2017-Oct-16 15:24 133 3 gusting 10 28.3
2017-Oct-16 15:18 132 4 gusting 8 28.9
2017-Oct-16 15:14 115 4 gusting 9 28.9
2017-Oct-16 15:08 149 3 gusting 8 29.4
2017-Oct-16 15:04 165 4 gusting 8 28.9
2017-Oct-16 14:58 161 6 gusting 7 28.9
2017-Oct-16 14:54 199 2 gusting 8 28.3
2017-Oct-16 14:48 175 5 gusting 13 28.3
2017-Oct-16 14:44 215 10 gusting 13 28.3
2017-Oct-16 14:40 177 7 gusting 13 28.3
2017-Oct-16 14:34 187 5 gusting 10 28.3
2017-Oct-16 14:30 133 6 gusting 10 28.9
2017-Oct-16 14:24 205 5 gusting 6 28.9
2017-Oct-16 14:19 185 2 gusting 6 28.9
2017-Oct-16 14:13 257 3 gusting 9 28.3
2017-Oct-16 14:09 198 5 gusting 9 28.3
2017-Oct-16 14:03 199 4 gusting 11 28.3
2017-Oct-16 13:59 226 4 gusting 9 27.8
2017-Oct-16 13:53 157 2 gusting 8 28.3
2017-Oct-16 13:49 160 4 gusting 11 27.8
2017-Oct-16 13:43 229 5 gusting 10 27.8
2017-Oct-16 13:39 199 7 gusting 12 27.8
2017-Oct-16 13:33 234 6 gusting 11 28.3
2017-Oct-16 13:29 150 8 gusting 11 27.8
2017-Oct-16 13:23 180 7 gusting 9 28.3
2017-Oct-16 13:19 158 2 gusting 8 28.3
2017-Oct-16 13:15 194 3 gusting 8 28.3
2017-Oct-16 13:09 188 6 gusting 6 28.3
2017-Oct-16 13:05 189 6 gusting 6 28.3
2017-Oct-16 12:58 137 3 gusting 6 28.3
2017-Oct-16 12:54 133 2 gusting 6 28.3
2017-Oct-16 12:48 203 3 gusting 8 28.3
2017-Oct-16 12:44 203 3 gusting 8 28.9
2017-Oct-16 12:38 203 3 gusting 6 28.3
2017-Oct-16 12:34 295 0 gusting 9 27.8
2017-Oct-16 12:28 191 3 gusting 8 27.8
2017-Oct-16 12:24 161 6 gusting 6 27.8
2017-Oct-16 12:18 161 1 gusting 8 27.8
2017-Oct-16 12:14 206 4 gusting 6 27.8
2017-Oct-16 12:08 153 2 gusting 6 27.8
2017-Oct-16 12:04 091 3 gusting 7 27.2
2017-Oct-16 12:00 156 3 gusting 7 27.2
2017-Oct-16 11:54 111 5 gusting 7 26.7
2017-Oct-16 11:45 182 0 gusting 7 26.7
2017-Oct-16 11:43 146 4 gusting 8 26.7
2017-Oct-16 11:39 074 4 gusting 8 27.2
2017-Oct-16 11:33 118 26.7
2017-Oct-16 11:29 129 4 gusting 6 26.7
2017-Oct-16 11:23 111 1 gusting 6 26.7
2017-Oct-16 11:19 147 4 gusting 7 26.7
2017-Oct-16 11:13 136 6 gusting 6 27.2
2017-Oct-16 11:09 156 3 gusting 5 26.7
2017-Oct-16 11:03 172 0 gusting 7 26.7
2017-Oct-16 10:59 191 4 gusting 4 26.7
2017-Oct-16 10:55 268 0 gusting 4 26.1
2017-Oct-16 10:49 254 1 gusting 3 26.1
2017-Oct-16 10:44 225 26.1
2017-Oct-16 10:38 064 1 gusting 6 26.1
2017-Oct-16 10:34 140 2 gusting 6 26.1
2017-Oct-16 10:28 246 1 gusting 5 25.6
2017-Oct-16 10:24 227 0 gusting 5 25.0
2017-Oct-16 10:18 210 2 gusting 6 25.0
2017-Oct-16 10:14 177 1 gusting 5 25.0
2017-Oct-16 10:08 203 3 gusting 6 24.4
2017-Oct-16 10:04 165 1 gusting 2 24.4
2017-Oct-16 09:58 118 23.9
2017-Oct-16 09:54 118 23.9
2017-Oct-16 09:48 133 0 gusting 2 23.9
2017-Oct-16 09:44 306 23.3
2017-Oct-16 09:40 306 0 gusting 4 23.3
2017-Oct-16 09:34 053 22.8
2017-Oct-16 09:30 118 22.8
2017-Oct-16 09:23 118 22.2
2017-Oct-16 09:19 118 21.7
2017-Oct-16 09:13 302 21.7
2017-Oct-16 09:09 302 21.1
2017-Oct-16 09:03 302 20.6
2017-Oct-16 08:59 302 20.6
2017-Oct-16 08:53 302 20.6
2017-Oct-16 08:49 302 20.6
2017-Oct-16 08:43 302 20.6
2017-Oct-16 08:39 302 20.0
2017-Oct-16 08:33 317 0 gusting 1 20.6
2017-Oct-16 08:29 284 1 gusting 1 20.6
2017-Oct-16 08:25 296 0 gusting 1 20.6
2017-Oct-16 08:19 132 20.6
2017-Oct-16 08:14 132 20.6
2017-Oct-16 08:08 132 20.6
2017-Oct-16 08:04 132 20.6
2017-Oct-16 07:58 092 20.6
2017-Oct-16 07:54 082 1 20.6
2017-Oct-16 07:48 142 20.6
2017-Oct-16 07:44 122 20.0
2017-Oct-16 07:38 102 20.0
2017-Oct-16 07:34 118 1 gusting 3 20.0
2017-Oct-16 07:28 095 1 gusting 2 20.0
2017-Oct-16 07:24 113 1 gusting 0 20.6
2017-Oct-16 07:18 137 20.6
2017-Oct-16 07:14 116 20.6
2017-Oct-16 07:10 120 0 gusting 2 20.6
2017-Oct-16 07:04 195 0 gusting 5 20.6
2017-Oct-16 06:59 113 2 gusting 5 20.6
2017-Oct-16 06:53 118 3 gusting 6 20.6
2017-Oct-16 06:49 122 4 gusting 6 20.6
2017-Oct-16 06:43 151 3 gusting 6 20.6
2017-Oct-16 06:39 135 2 gusting 5 20.6
2017-Oct-16 06:33 087 2 gusting 4 20.6
2017-Oct-16 06:29 135 2 gusting 3 20.6
2017-Oct-16 06:23 136 1 gusting 5 20.6
2017-Oct-16 06:19 135 1 gusting 4 20.6
2017-Oct-16 06:13 132 3 gusting 4 20.6
2017-Oct-16 06:09 075 20.6
2017-Oct-16 06:03 156 3 gusting 6 21.1
2017-Oct-16 05:59 140 2 gusting 5 21.1
2017-Oct-16 05:55 160 2 gusting 5 21.1
2017-Oct-16 05:49 101 2 gusting 4 21.1
2017-Oct-16 05:45 129 3 gusting 4 21.1
2017-Oct-16 05:38 139 3 gusting 4 21.1
2017-Oct-16 05:34 137 2 gusting 4 20.6
2017-Oct-16 05:28 147 1 gusting 5 20.6
2017-Oct-16 05:24 146 2 gusting 5 20.6
2017-Oct-16 05:18 144 3 gusting 4 20.6
2017-Oct-16 05:14 132 2 gusting 4 21.1
2017-Oct-16 05:08 144 3 gusting 4 20.6
2017-Oct-16 05:04 143 3 gusting 4 20.6
2017-Oct-16 04:58 129 4 gusting 5 20.6
2017-Oct-16 04:54 137 2 gusting 6 20.6
2017-Oct-16 04:48 118 2 gusting 5 20.6
2017-Oct-16 04:44 156 3 gusting 4 21.1
2017-Oct-16 04:40 135 2 gusting 4 20.6
2017-Oct-16 04:34 149 2 gusting 3 20.6
2017-Oct-16 04:30 140 2 gusting 3 21.1
2017-Oct-16 04:23 163 1 gusting 5 20.6
2017-Oct-16 04:19 154 2 gusting 5 21.1
2017-Oct-16 04:13 178 3 gusting 4 21.1
2017-Oct-16 04:09 143 2 gusting 4 21.1
2017-Oct-16 04:03 150 2 gusting 4 20.6
2017-Oct-16 03:59 165 3 gusting 4 21.1
2017-Oct-16 03:53 164 3 gusting 6 21.1
2017-Oct-16 03:49 137 2 gusting 5 21.1
2017-Oct-16 03:43 171 3 gusting 5 21.1
2017-Oct-16 03:39 163 3 gusting 5 21.1
2017-Oct-16 03:33 150 3 gusting 6 21.1
2017-Oct-16 03:29 151 3 gusting 6 21.1
2017-Oct-16 03:25 160 3 gusting 6 21.1
2017-Oct-16 03:19 187 4 gusting 6 21.1
2017-Oct-16 03:15 161 3 gusting 6 21.1
2017-Oct-16 03:09 168 3 gusting 6 21.1
2017-Oct-16 03:04 151 3 gusting 6 21.1
2017-Oct-16 02:58 172 3 gusting 5 21.1
2017-Oct-16 02:54 189 4 gusting 5 21.1
2017-Oct-16 02:48 154 3 gusting 5 21.1
2017-Oct-16 02:44 146 4 gusting 5 21.1
2017-Oct-16 02:38 150 3 gusting 5 21.1
2017-Oct-16 02:34 187 3 gusting 5 21.7
2017-Oct-16 02:28 194 2 gusting 4 21.7
2017-Oct-16 02:24 205 3 gusting 5 21.1
2017-Oct-16 02:18 150 2 gusting 6 21.7
2017-Oct-16 02:14 194 2 gusting 6 21.7
2017-Oct-16 02:08 182 3 gusting 5 21.7
2017-Oct-16 02:04 177 3 gusting 5 21.7
2017-Oct-16 02:00 225 3 gusting 5 21.7
2017-Oct-16 01:54 194 3 gusting 6 21.7
2017-Oct-16 01:50 191 1 gusting 6 21.7
2017-Oct-16 01:43 187 2 gusting 6 22.2
2017-Oct-16 01:39 195 2 gusting 6 22.2
2017-Oct-16 01:33 188 3 gusting 6 22.2
2017-Oct-16 01:29 209 5 gusting 6 22.2
2017-Oct-16 01:23 191 3 gusting 7 22.2
2017-Oct-16 01:19 201 6 gusting 6 22.2
2017-Oct-16 01:13 225 3 gusting 6 22.2
2017-Oct-16 01:09 203 3 gusting 7 22.2
2017-Oct-16 01:03 208 4 gusting 6 22.2
2017-Oct-16 00:59 188 4 gusting 6 22.2
2017-Oct-16 00:53 187 5 gusting 5 22.2
2017-Oct-16 00:49 167 3 gusting 6 22.2
2017-Oct-16 00:45 133 3 gusting 6 22.2
2017-Oct-16 00:39 164 3 gusting 6 22.8
2017-Oct-16 00:35 167 3 gusting 6 22.8
2017-Oct-16 00:28 157 2 gusting 5 22.8
2017-Oct-16 00:24 142 2 gusting 5 22.8
2017-Oct-16 00:18 191 4 gusting 4 22.8
2017-Oct-16 00:14 144 2 gusting 4 22.8
2017-Oct-16 00:08 194 2 gusting 4 22.8
2017-Oct-16 00:04 234 1 gusting 5 22.8
2017-Oct-15 23:58 230 2 gusting 5 23.3
2017-Oct-15 23:54 198 1 gusting 6 23.3
2017-Oct-15 23:48 220 1 gusting 6 23.3
2017-Oct-15 23:44 168 3 gusting 9 23.3
2017-Oct-15 23:38 196 6 gusting 7 23.3
2017-Oct-15 23:34 196 5 gusting 7 23.3
2017-Oct-15 23:30 219 4 gusting 7 23.9
2017-Oct-15 23:24 165 4 gusting 7 23.9
2017-Oct-15 23:20 137 5 gusting 7 23.9
2017-Oct-15 23:13 199 4 gusting 5 23.9
2017-Oct-15 23:09 216 2 gusting 5 23.9
2017-Oct-15 23:03 213 1 gusting 5 23.9
2017-Oct-15 22:59 217 2 gusting 5 23.9
2017-Oct-15 22:53 158 2 gusting 5 23.9
2017-Oct-15 22:49 168 4 gusting 5 23.9
2017-Oct-15 22:43 189 2 gusting 6 23.9
2017-Oct-15 22:39 220 1 gusting 6 23.9
2017-Oct-15 22:33 227 4 gusting 6 23.9
2017-Oct-15 22:29 206 3 gusting 5 24.4
2017-Oct-15 22:23 250 2 gusting 6 24.4
2017-Oct-15 22:19 164 2 gusting 6 24.4
2017-Oct-15 22:15 189 5 gusting 6 24.4
2017-Oct-15 22:09 248 3 gusting 6 24.4
2017-Oct-15 22:05 241 4 gusting 6 24.4
2017-Oct-15 21:59 258 1 gusting 3 24.4
2017-Oct-15 21:54 268 4 gusting 3 25.0
2017-Oct-15 21:48 286 1 gusting 9 25.6
2017-Oct-15 21:44 220 6 gusting 9 25.6
2017-Oct-15 21:38 195 4 gusting 7 25.6
2017-Oct-15 21:34 160 3 gusting 5 25.6
2017-Oct-15 21:28 140 1 gusting 2 26.1
2017-Oct-15 21:24 281 26.1
2017-Oct-15 21:18 247 1 gusting 6 26.1
2017-Oct-15 21:14 196 2 gusting 6 26.1
2017-Oct-15 21:08 154 2 gusting 6 26.1
2017-Oct-15 21:04 139 4 gusting 5 26.1
2017-Oct-15 21:00 140 3 gusting 5 26.7
2017-Oct-15 20:54 178 3 gusting 7 26.7
2017-Oct-15 20:50 172 3 gusting 7 26.7
2017-Oct-15 20:44 161 5 gusting 6 26.7
2017-Oct-15 20:40 171 2 gusting 6 26.7
2017-Oct-15 20:33 160 4 gusting 6 26.7
2017-Oct-15 20:29 182 6 gusting 6 27.2
2017-Oct-15 20:23 158 4 gusting 5 27.2
2017-Oct-15 20:19 182 3 gusting 6 27.2
2017-Oct-15 20:13 177 3 gusting 6 27.2
2017-Oct-15 20:09 206 5 gusting 5 27.2
2017-Oct-15 20:03 233 2 gusting 3 27.8
2017-Oct-15 19:59 234 1 gusting 3 27.8
2017-Oct-15 19:53 234 1 gusting 3 27.8
2017-Oct-15 19:49 195 2 gusting 5 27.8
2017-Oct-15 19:43 203 1 gusting 5 27.8
2017-Oct-15 19:39 209 2 gusting 4 28.3
2017-Oct-15 19:35 189 3 gusting 4 27.8
2017-Oct-15 19:29 243 28.3
2017-Oct-15 19:25 236 3 gusting 6 28.3
2017-Oct-15 19:18 168 4 gusting 6 28.3
2017-Oct-15 19:14 147 4 gusting 6 28.3
2017-Oct-15 19:08 122 4 gusting 7 28.3
2017-Oct-15 19:04 137 6 gusting 7 28.3
2017-Oct-15 18:58 142 6 gusting 5 28.9
2017-Oct-15 18:54 170 1 gusting 6 28.9
2017-Oct-15 18:48 163 1 gusting 6 28.9
2017-Oct-15 18:44 151 3 gusting 9 28.9
2017-Oct-15 18:38 188 5 gusting 8 28.9
2017-Oct-15 18:34 178 6 gusting 8 28.9
2017-Oct-15 18:28 192 4 gusting 11 28.9
2017-Oct-15 18:24 215 5 gusting 10 28.9
2017-Oct-15 18:20 239 10 gusting 10 29.4
2017-Oct-15 18:14 209 6 gusting 10 29.4
2017-Oct-15 18:10 217 10 gusting 10 29.4
2017-Oct-15 18:04 233 5 gusting 12 30.0
2017-Oct-15 17:59 230 6 gusting 12 30.0
2017-Oct-15 17:53 205 8 gusting 15 30.0
2017-Oct-15 17:49 232 7 gusting 15 30.6
2017-Oct-15 17:43 210 6 gusting 13 30.6
2017-Oct-15 17:39 251 11 gusting 16 31.1
2017-Oct-15 17:33 232 10 gusting 13 31.7
2017-Oct-15 17:29 202 6 gusting 12 31.7
2017-Oct-15 17:23 230 6 gusting 13 31.7
2017-Oct-15 17:19 233 9 gusting 12 32.2
2017-Oct-15 17:13 285 7 gusting 10 32.8
2017-Oct-15 17:09 209 2 gusting 6 32.8
2017-Oct-15 17:03 222 4 gusting 8 33.9
2017-Oct-15 16:59 212 6 gusting 8 34.4
2017-Oct-15 16:55 205 5 gusting 8 34.4
2017-Oct-15 16:49 191 5 gusting 12 34.4
2017-Oct-15 16:44 208 6 gusting 12 34.4
2017-Oct-15 16:38 248 8 gusting 13 35.0
2017-Oct-15 16:34 210 4 gusting 13 35.6
2017-Oct-15 16:28 167 6 gusting 16 35.6
2017-Oct-15 16:24 213 8 gusting 14 35.0
2017-Oct-15 16:18 157 6 gusting 14 36.1
2017-Oct-15 16:14 150 7 gusting 17 35.6
2017-Oct-15 16:08 187 6 gusting 17 35.6
2017-Oct-15 16:04 198 7 gusting 17 35.6
2017-Oct-15 15:58 118 7 gusting 20 35.6
2017-Oct-15 15:54 154 16 gusting 23 35.6
2017-Oct-15 15:48 139 8 gusting 23 36.1
2017-Oct-15 15:44 087 10 gusting 14 36.1
2017-Oct-15 15:40 157 6 gusting 14 36.1
2017-Oct-15 15:34 191 9 gusting 19 36.1
2017-Oct-15 15:30 168 12 gusting 19 36.1
2017-Oct-15 15:23 157 10 gusting 25 35.6
2017-Oct-15 15:19 146 7 gusting 25 35.6
2017-Oct-15 15:13 196 13 gusting 27 36.1
2017-Oct-15 15:09 130 9 gusting 27 36.1
2017-Oct-15 15:03 150 7 gusting 21 36.1
2017-Oct-15 14:59 130 13 gusting 19 36.7
2017-Oct-15 14:53 184 7 gusting 19 37.2
2017-Oct-15 14:49 143 12 gusting 20 36.1
2017-Oct-15 14:43 135 10 gusting 20 36.7
2017-Oct-15 14:39 153 10 gusting 23 36.1
2017-Oct-15 14:33 180 22 gusting 20 36.1
2017-Oct-15 14:29 147 13 gusting 19 36.7
2017-Oct-15 14:25 174 7 gusting 19 37.2
2017-Oct-15 14:19 171 13 gusting 24 36.7
2017-Oct-15 14:15 143 15 gusting 24 36.7
2017-Oct-15 14:08 161 7 gusting 22 36.7
2017-Oct-15 14:04 182 6 gusting 22 36.7
2017-Oct-15 13:58 150 6 gusting 20 36.1
2017-Oct-15 13:54 205 9 gusting 20 36.7
2017-Oct-15 13:48 226 10 gusting 20 36.1
2017-Oct-15 13:44 161 11 gusting 19 36.1
2017-Oct-15 13:38 157 8 gusting 19 36.7
2017-Oct-15 13:34 144 7 gusting 26 36.1
2017-Oct-15 13:28 158 12 gusting 21 36.1
2017-Oct-15 13:24 163 15 gusting 22 35.6
2017-Oct-15 13:18 158 7 gusting 21 36.1
2017-Oct-15 13:08 215 5 gusting 20 36.1
2017-Oct-15 13:04 205 8 gusting 19 36.1
2017-Oct-15 13:00 167 8 gusting 19 36.1
2017-Oct-15 12:54 163 9 gusting 21 35.6
2017-Oct-15 12:49 158 12 gusting 21 35.6
2017-Oct-15 12:43 122 8 gusting 23 35.6
2017-Oct-15 12:39 187 13 gusting 23 35.6
2017-Oct-15 12:33 163 7 gusting 22 35.0
2017-Oct-15 12:29 163 9 gusting 21 35.0
2017-Oct-15 12:23 161 12 gusting 21 35.0
2017-Oct-15 12:19 147 9 gusting 23 35.0
2017-Oct-15 12:13 158 14 gusting 21 35.0
2017-Oct-15 12:09 171 16 gusting 18 34.4
2017-Oct-15 12:03 139 11 gusting 18 35.0
2017-Oct-15 11:59 137 10 gusting 13 34.4
2017-Oct-15 11:53 180 13 gusting 15 34.4
2017-Oct-15 11:49 122 6 gusting 12 34.4
2017-Oct-15 11:45 118 6 gusting 12 33.9
2017-Oct-15 11:39 163 6 gusting 15 33.9
2017-Oct-15 11:35 165 3 gusting 15 33.9
2017-Oct-15 11:28 118 8 gusting 14 33.9
2017-Oct-15 11:20 129 5 gusting 14 33.3
2017-Oct-15 11:18 109 13 gusting 12 33.3
2017-Oct-15 11:14 147 5 gusting 10 33.3
2017-Oct-15 11:08 157 5 gusting 12 32.8
2017-Oct-15 11:04 132 5 gusting 11 32.8